CAPE
10 0 0 18 2 0 0 0 0 0 0 0 0 1 0 0 0 0 0 0 0 0 0 0 0 0 0 0 0 0 0 0 0 0 0 0 0 0 0 0 0 0 0 0 0 0 0 0 0 0 0 0 0 0
0 0 24 11 4 0 0 0 0 0 0 0 1 0 0 1 0 0 0 0 0 0 0 0 0 0 0 0 0 0 0 0 0 0 0 0 0 0 0 0 0 0 0 0 0 0 0 0 0 0 0 0 0 0
4 3 0 9 8 0 0 0 0 0 0 0 0 1 0 1 0 0 0 0 0 0 0 0 0 0 0 0 0 0 0 0 0 0 0 0 0 0 0 0 0 0 0 0 0 0 0 0 0 0 0 0 0 0
3 2 1 2 1 0 0 0 0 1 1 2 0 1 0 0 0 0 0 0 0 0 0 0 0 0 0 0 0 0 0 0 0 0 0 0 0 0 0 0 0 0 0 0 0 0 0 0 0 0 0 0 0 0
0 7 4 4 4 0 0 0 3 4 1 2 0 0 0 0 0 0 0 0 0 0 0 0 0 0 0 0 0 0 0 0 0 0 0 0 0 0 0 0 0 0 0 0 0 0 0 0 0 0 0 0 0 0
14 15 15 9 1 0 0 2 10 5 13 14 0 0 0 0 0 0 0 0 0 0 0 0 0 0 0 0 0 0 0 0 0 0 0 0 0 0 0 0 0 0 0 0 0 0 0 0 0 0 0 0 0 0
0 11 10 5 0 0 7 31 4 6 5 8 1 0 0 1 0 0 0 0 0 0 0 0 0 1 0 0 0 0 0 0 0 0 0 0 0 0 0 0 0 0 0 0 0 0 0 0 0 0 0 0 0 0
0 11 6 7 0 1 5 8 0 2 0 10 4 4 0 0 0 0 0 0 0 0 0 0 0 5 4 0 0 0 0 0 0 0 0 0 0 0 0 0 0 0 0 0 0 0 0 0 0 0 0 0 0 0
0 17 5 3 0 0 1 2 0 1 9 2 1 0 3 0 0 0 0 0 0 0 0 0 0 0 0 9 0 0 0 0 0 0 0 0 0 0 0 0 0 0 0 0 0 0 0 0 0 0 0 0 0 0
6 9 9 0 0 2 2 0 1 7 1 2 1 5 0 11 0 0 0 0 0 0 0 0 0 0 0 0 2 0 0 0 0 0 0 0 0 0 0 0 0 0 0 0 0 0 0 0 0 0 0 0 0 0
5 9 0 0 0 1 4 3 10 4 9 0 0 0 0 0 0 0 0 0 0 0 0 0 0 0 0 0 0 0 0 0 0 2 0 0 0 0 0 0 0 0 0 0 0 0 0 0 0 0 0 0 0 0
11 3 0 2 6 2 12 2 9 12 0 0 0 0 0 0 0 0 0 0 0 0 0 0 0 0 6 0 0 0 0 0 0 0 0 0 0 0 0 0 0 0 0 0 0 0 0 0 0 0 0 0 0 0
28 9 14 0 6 8 4 6 4 0 0 5 2 1 0 0 0 0 0 0 0 0 0 0 1 1 1 0 0 0 0 0 0 0 0 0 0 0 0 0 0 0 0 0 0 0 0 0 0 0 0 0 0 0
26 13 20 13 8 9 28 1 8 0 0 0 0 0 0 0 0 0 0 0 0 0 0 0 0 4 0 0 0 0 0 0 0 0 0 0 0 0 0 0 0 0 0 0 0 0 0 0 0 0 0 0 0 0
8 2 13 13 14 8 5 0 0 1 0 0 0 0 0 0 0 0 0 0 0 0 0 1 0 0 0 0 0 0 1 0 0 0 0 0 0 0 0 0 0 0 0 0 0 0 0 0 0 0 0 0 0 0
14 5 4 2 1 2 0 0 0 0 0 1 0 0 0 0 0 0 0 0 0 0 0 1 0 0 0 0 0 0 0 0 0 0 0 0 0 0 0 0 1 0 0 0 0 0 0 0 0 0 0 0 0 0
0 1 5 3 1 0 0 0 0 0 0 0 0 0 0 0 0 0 0 0 3 6 2 0 0 0 0 0 0 0 0 0 0 0 0 0 0 0 0 0 0 0 0 0 0 0 0 0 0 0 0 0 0 0
0 8 15 0 0 0 0 0 0 0 0 0 2 0 0 0 0 0 0 0 0 4 6 0 0 0 1 0 0 0 0 1 0 0 0 0 0 0 0 0 0 0 0 0 0 0 0 0 0 0 0 0 0 0
2 5 0 0 1 0 0 0 0 0 3 0 0 0 0 0 0 0 0 1 5 5 0 0 0 0 0 0 0 0 0 0 0 0 0 0 0 0 0 0 0 0 0 0 0 0 0 0 0 0 0 0 0 0
0 1 0 0 0 0 0 0 0 1 1 0 0 0 0 0 0 0 0 0 6 2 1 0 0 0 0 0 0 0 0 0 0 0 0 0 0 0 0 0 0 0 0 0 0 0 0 0 0 0 0 0 0 0
0 0 0 2 1 0 0 0 0 0 0 0 0 0 0 0 0 0 0 0 0 0 0 0 0 0 0 0 0 0 0 0 0 0 0 0 0 0 0 0 0 0 0 0 0 0 0 0 0 0 0 0 0 0
0 0 0 0 1 1 0 0 0 0 0 0 0 0 0 0 0 0 0 0 0 0 0 0 0 0 0 0 0 0 0 0 0 0 0 0 0 0 0 0 0 0 0 0 0 0 0 0 0 0 0 0 0 0
0 0 0 0 0 0 0 0 0 0 0 0 0 0 0 0 0 0 0 0 0 0 0 0 0 0 0 0 0 0 0 0 0 0 0 0 0 0 0 0 0 0 0 0 0 0 0 0 0 0 0 0 0 0
0 0 0 0 0 0 0 0 0 0 0 0 0 0 0 0 0 0 0 0 0 0 0 0 0 0 0 0 0 0 0 0 0 0 0 0 0 0 0 0 0 0 0 0 0 0 0 0 0 0 0 0 0 0
0 0 0 0 0 0 0 0 0 0 0 0 0 0 0 0 0 0 0 0 0 0 0 0 0 0 0 0 0 0 1 0 0 0 0 0 0 0 0 0 0 0 0 0 0 0 0 0 0 0 0 0 0 0
0 0 0 0 0 0 0 0 0 0 0 0 0 0 0 1 0 0 0 0 0 0 0 0 0 1 0 0 0 0 1 0 1 0 0 0 0 0 0 0 0 0 0 0 0 0 0 0 0 0 0 0 0 0
0 0 0 0 0 0 0 0 0 0 0 0 0 0 0 0 0 0 0 0 0 0 0 1 1 1 0 0 0 1 0 1 0 0 0 0 0 0 0 0 0 0 0 0 0 0 0 0 0 0 0 0 0 0
0 0 0 0 0 0 0 0 0 0 0 0 0 0 0 0 0 0 0 0 0 0 0 0 0 0 0 0 0 0 0 0 0 0 0 0 0 0 0 0 0 0 0 0 0 0 0 0 0 0 0 0 0 0
0 0 0 0 0 0 0 0 0 0 0 0 0 0 0 0 0 0 0 0 0 0 0 0 0 0 0 0 0 0 0 0 0 0 0 0 0 0 0 0 0 0 0 0 0 0 0 0 0 0 0 0 0 0
0 0 0 0 0 0 0 0 0 0 0 0 0 0 0 1 0 0 0 0 1 0 0 0 0 0 0 0 0 0 0 0 0 0 0 0 0 0 0 0 0 0 0 0 0 0 0 0 0 0 0 0 0 0
0 0 0 0 0 0 0 0 0 0 0 0 0 0 0 0 0 0 0 0 0 0 0 0 0 0 0 0 0 0 0 0 0 0 0 0 0 0 0 0 0 0 0 0 0 0 0 0 0 0 0 0 0 0
0 0 0 0 0 0 0 0 0 0 0 0 0 0 0 0 0 0 0 0 0 0 0 0 0 0 0 0 0 0 0 0 0 0 0 0 0 0 0 0 0 0 0 0 0 0 0 0 0 0 0 0 0 0
0 0 0 0 0 0 0 0 0 0 0 0 0 0 0 0 0 0 0 0 0 0 0 1 0 0 0 0 0 0 0 0 0 0 0 0 0 0 0 0 0 0 0 0 0 0 0 0 0 0 0 0 0 0
CIN
-2 -0 -0 -0 -0 -11 -0 -0 -0 -0 -0 -0 -6 -1 -0 -0 -0 -0 -0 -0 -0 -0 -0 -0 -0 -0 -0 -0 -0 -0 -0 -0 -0 -0 -0 -0 -0 -0 -0 -0 -0 -0 -0 -0 -0 -0 -0 -0 -0 -0 -0 -0 -0 -0
-0 -0 -0 -1 -1 -0 -0 -0 -0 -0 -0 -0 -25 -0 -0 -0 -0 -0 -0 -0 -0 -0 -0 -0 -0 -0 -0 -0 -0 -0 -0 -0 -0 -0 -0 -0 -0 -0 -0 -0 -0 -0 -0 -0 -0 -0 -0 -0 -0 -0 -0 -0 -0 -0
-0 -0 -0 -0 -3 -0 -0 -0 -0 -0 -0 -1 -12 -0 -0 -0 -0 -0 -0 -0 -0 -0 -0 -0 -0 -0 -0 -0 -0 -0 -0 -0 -0 -0 -0 -0 -0 -0 -0 -0 -0 -0 -0 -0 -0 -0 -0 -0 -0 -0 -0 -0 -0 -0
-0 -0 -0 -1 -9 -0 -0 -0 -0 -4 -10 -29 -0 -0 -0 -0 -0 -0 -0 -0 -0 -0 -0 -0 -0 -0 -0 -0 -0 -0 -0 -0 -0 -0 -0 -0 -0 -0 -0 -0 -0 -0 -0 -0 -0 -0 -0 -0 -0 -0 -0 -0 -0 -0
-0 -0 -0 -4 -12 -0 -0 -0 -7 -7 -22 -24 -3 -0 -0 -0 -0 -0 -0 -0 -0 -0 -0 -0 -0 -0 -0 -0 -0 -0 -0 -0 -0 -0 -0 -0 -0 -0 -0 -0 -0 -0 -0 -0 -0 -0 -0 -0 -0 -0 -0 -0 -0 -0
-0 -0 -0 -0 -6 -0 -0 -14 -8 -10 -19 -19 -0 -0 -0 -0 -0 -0 -0 -0 -0 -0 -0 -0 -0 -0 -0 -0 -0 -0 -0 -0 -0 -0 -0 -0 -0 -0 -0 -0 -0 -0 -0 -0 -0 -0 -0 -0 -0 -0 -0 -0 -0 -0
-4 -0 -0 -3 -0 -0 -21 -16 -3 -11 -26 -32 -25 -47 -0 -42 -0 -0 -0 -0 -0 -0 -0 -0 -0 -4 -0 -0 -0 -0 -0 -0 -0 -0 -0 -0 -0 -0 -0 -0 -0 -0 -0 -0 -0 -0 -0 -0 -0 -0 -0 -0 -0 -0
-0 -0 -0 -9 -0 -11 -16 -8 -1 -2 -0 -41 -61 -55 -0 -0 -24 -0 -0 -0 -0 -0 -0 -0 -0 -3 -8 -0 -0 -0 -0 -0 -0 -0 -0 -0 -0 -0 -0 -0 -0 -0 -0 -0 -0 -0 -0 -0 -0 -0 -0 -0 -0 -0
-0 -0 -0 -6 -0 -5 -4 -18 -0 -0 -29 -51 -73 -52 -35 -0 -0 -0 -0 -0 -0 -0 -0 -0 -0 -0 -0 -13 -0 -0 -0 -0 -0 -0 -0 -0 -0 -0 -0 -0 -0 -0 -0 -0 -0 -0 -0 -0 -0 -0 -0 -0 -0 -0
-4 -1 -6 -0 -0 -0 -33 -0 -0 -19 -25 -37 -56 -29 -0 -50 -1 -0 -0 -0 -0 -0 -0 -0 -0 -0 -0 -0 -10 -0 -0 -0 -0 -0 -0 -0 -0 -0 -0 -0 -0 -0 -0 -0 -0 -0 -0 -0 -0 -0 -0 -0 -0 -0
-0 -6 -0 -0 -0 -6 -27 -22 -12 -17 -23 -0 -0 -0 -0 -20 -0 -0 -0 -0 -0 -0 -0 -0 -0 -0 -0 -0 -0 -0 -1 -0 -0 -9 -0 -0 -0 -0 -0 -0 -0 -0 -0 -0 -0 -0 -0 -0 -0 -0 -0 -0 -0 -0
-0 -3 -0 -3 -16 -21 -23 -9 -8 -16 -16 -0 -0 -9 -29 -0 -0 -0 -0 -0 -0 -0 -0 -0 -0 -0 -12 -6 -2 -0 -0 -0 -0 -0 -0 -0 -0 -0 -0 -0 -0 -0 -0 -0 -0 -0 -0 -0 -0 -0 -0 -0 -0 -0
-0 -6 -8 -0 -6 -18 -13 -12 -22 -0 -22 -60 -23 -8 -0 -0 -0 -0 -0 -0 -0 -0 -0 -0 -2 -14 -11 -0 -0 -0 -0 -0 -0 -0 -0 -0 -0 -0 -0 -0 -0 -0 -0 -0 -0 -0 -0 -0 -0 -0 -0 -0 -0 -0
-1 -7 -4 -2 -2 -6 -4 -5 -24 -4 -0 -0 -0 -0 -0 -0 -0 -0 -0 -0 -0 -0 -0 -0 -0 -10 -0 -0 -0 -0 -0 -0 -0 -0 -0 -0 -0 -0 -0 -0 -0 -0 -0 -0 -0 -0 -0 -0 -0 -0 -0 -0 -0 -0
-3 -18 -8 -1 -5 -6 -9 -9 -9 -22 -0 -0 -0 -0 -0 -0 -0 -0 -0 -0 -0 -0 -0 -12 -0 -0 -0 -0 -0 -0 -1 -0 -0 -0 -0 -0 -0 -0 -0 -0 -0 -0 -0 -0 -0 -0 -0 -0 -0 -0 -0 -0 -0 -0
-0 -1 -3 -7 -1 -8 -0 -0 -0 -0 -0 -26 -0 -0 -0 -0 -0 -0 -0 -0 -0 -0 -1 -12 -0 -0 -0 -0 -0 -0 -0 -0 -0 -0 -0 -0 -0 -0 -0 -0 -0 -0 -0 -0 -0 -0 -0 -0 -0 -0 -0 -0 -0 -0
-0 -0 -1 -4 -0 -0 -0 -0 -0 -0 -0 -0 -0 -0 -0 -0 -0 -0 -0 -0 -15 -5 -3 -1 -0 -0 -0 -0 -0 -0 -0 -0 -0 -0 -0 -0 -0 -0 -0 -0 -0 -0 -0 -0 -0 -0 -0 -0 -0 -0 -0 -0 -0 -0
-0 -0 -0 -2 -0 -0 -0 -0 -0 -0 -0 -0 -21 -0 -0 -0 -0 -0 -1 -0 -0 -8 -22 -5 -0 -0 -2 -0 -0 -0 -0 -0 -0 -0 -0 -0 -0 -0 -0 -0 -0 -0 -0 -0 -0 -0 -0 -0 -0 -0 -0 -0 -0 -0
-0 -0 -0 -0 -0 -0 -0 -0 -0 -0 -9 -7 -0 -0 -0 -0 -0 -0 -8 -49 -41 -38 -11 -0 -0 -6 -0 -0 -0 -0 -0 -0 -0 -0 -0 -0 -0 -0 -0 -0 -0 -0 -0 -0 -0 -0 -0 -0 -0 -0 -0 -0 -0 -0
-0 -0 -0 -0 -2 -0 -0 -0 -0 -0 -3 -0 -0 -0 -0 -0 -0 -0 -0 -5 -23 -22 -10 -0 -0 -0 -0 -0 -0 -0 -0 -0 -0 -0 -0 -0 -0 -0 -0 -0 -0 -0 -0 -0 -0 -0 -0 -0 -0 -0 -0 -0 -0 -0
-7 -10 -0 -1 -0 -0 -0 -0 -0 -0 -0 -0 -0 -0 -0 -0 -0 -0 -0 -0 -0 -0 -0 -0 -0 -0 -0 -0 -0 -0 -0 -0 -0 -0 -0 -0 -0 -0 -0 -0 -0 -0 -0 -0 -0 -0 -0 -0 -0 -0 -0 -0 -0 -0
-0 -0 -0 -0 -0 -0 -0 -0 -0 -0 -0 -0 -0 -0 -0 -0 -0 -0 -0 -0 -0 -0 -0 -0 -0 -0 -0 -0 -0 -0 -0 -0 -0 -0 -0 -0 -0 -0 -0 -0 -0 -0 -0 -0 -0 -0 -0 -0 -0 -0 -0 -0 -0 -0
-0 -0 -0 -0 -0 -0 -0 -0 -0 -0 -0 -0 -0 -0 -0 -0 -0 -0 -0 -0 -0 -0 -0 -0 -0 -0 -0 -0 -0 -0 -0 -0 -0 -0 -0 -0 -0 -0 -0 -0 -0 -0 -0 -0 -0 -0 -0 -0 -0 -0 -0 -0 -0 -0
-0 -0 -0 -0 -0 -0 -0 -0 -0 -0 -0 -0 -0 -0 -0 -0 -0 -0 -0 -0 -0 -0 -0 -0 -0 -0 -0 -0 -0 -0 -0 -0 -0 -0 -0 -0 -0 -0 -0 -0 -0 -0 -0 -0 -0 -0 -0 -0 -0 -0 -0 -0 -0 -0
-0 -0 -0 -0 -0 -0 -0 -0 -0 -0 -0 -0 -0 -0 -0 -0 -0 -0 -0 -0 -0 -0 -0 -0 -0 -0 -0 -0 -0 -0 -0 -0 -0 -0 -0 -0 -0 -0 -0 -0 -0 -0 -0 -0 -0 -0 -0 -0 -0 -0 -0 -0 -0 -0
-0 -0 -0 -0 -0 -0 -0 -0 -0 -0 -0 -0 -0 -0 -0 -0 -0 -0 -0 -0 -0 -0 -0 -0 -0 -0 -0 -0 -0 -0 -0 -0 -0 -0 -0 -0 -0 -0 -0 -0 -0 -0 -0 -0 -0 -0 -0 -0 -0 -0 -0 -0 -0 -0
-0 -0 -0 -0 -0 -0 -0 -0 -0 -0 -0 -0 -0 -0 -0 -0 -0 -0 -0 -0 -0 -0 -0 -0 -0 -0 -0 -0 -0 -0 -0 -0 -0 -0 -0 -0 -0 -0 -0 -0 -0 -0 -0 -0 -0 -0 -0 -0 -0 -0 -0 -0 -0 -0
-0 -0 -0 -0 -0 -0 -0 -0 -0 -0 -0 -0 -0 -0 -0 -0 -0 -0 -0 -0 -0 -0 -0 -0 -0 -0 -0 -0 -0 -0 -0 -0 -0 -0 -0 -0 -0 -0 -0 -0 -0 -0 -0 -0 -0 -0 -0 -0 -0 -0 -0 -0 -0 -0
-0 -0 -0 -0 -0 -0 -0 -0 -0 -0 -0 -0 -0 -0 -0 -0 -0 -0 -0 -0 -0 -0 -0 -0 -0 -0 -0 -0 -0 -0 -0 -0 -0 -0 -0 -0 -0 -0 -0 -0 -0 -0 -0 -0 -0 -0 -0 -0 -0 -0 -0 -0 -0 -0
-0 -0 -0 -0 -0 -0 -0 -0 -0 -0 -0 -0 -0 -0 -0 -0 -0 -0 -0 -0 -0 -0 -0 -0 -0 -0 -0 -0 -0 -0 -0 -0 -0 -0 -0 -0 -0 -0 -0 -0 -0 -0 -0 -0 -0 -0 -0 -0 -0 -0 -0 -0 -0 -0
-0 -0 -0 -0 -0 -0 -0 -0 -0 -0 -0 -0 -0 -0 -0 -0 -0 -0 -0 -0 -0 -0 -0 -0 -0 -0 -0 -0 -0 -0 -0 -0 -0 -0 -0 -0 -0 -0 -0 -0 -0 -0 -0 -0 -0 -0 -0 -0 -0 -0 -0 -0 -0 -0
-0 -0 -0 -0 -0 -0 -0 -0 -0 -0 -0 -0 -0 -0 -0 -0 -0 -0 -0 -0 -0 -0 -0 -0 -0 -0 -0 -0 -0 -0 -0 -0 -0 -0 -0 -0 -0 -0 -0 -0 -0 -0 -0 -0 -0 -0 -0 -0 -0 -0 -0 -0 -0 -0
-0 -0 -0 -0 -0 -0 -0 -0 -0 -0 -0 -0 -0 -0 -0 -0 -0 -0 -0 -0 -0 -0 -0 -0 -0 -0 -0 -0 -0 -0 -0 -0 -0 -0 -0 -0 -0 -0 -0 -0 -0 -0 -0 -0 -0 -0 -0 -0 -0 -0 -0 -0 -0 -0
Wind_Speed
48 47 53 48 46 47 44 41 39 42 41 38 36 33 30 28 27 23 21 18 17 16 13 12 15 18 18 18 18 14 14 17 14 13 12 12 12 13 14 14 13 12 13 15 16 18 20 17 20 24 17 17 17 19
45 47 48 48 45 46 43 41 40 41 41 38 36 33 30 28 27 22 21 17 14 15 13 11 9 10 11 15 13 16 15 13 13 13 13 13 12 12 12 12 16 14 13 13 15 15 15 19 19 19 16 17 18 19
42 43 44 50 48 45 41 40 40 41 40 38 34 30 29 28 26 22 20 17 14 15 14 15 14 12 12 13 14 13 14 13 12 12 10 11 11 12 11 13 11 14 16 14 15 14 16 18 19 19 21 20 18 17
41 40 39 45 45 42 40 39 40 40 39 36 32 29 26 26 24 21 18 17 14 15 17 18 16 15 14 12 11 10 7 9 10 11 12 12 11 13 12 11 12 13 17 15 17 14 15 18 18 19 20 20 20 18
40 40 37 42 42 40 39 39 40 38 37 34 31 27 26 26 22 17 13 14 16 17 18 17 14 16 16 14 12 11 11 11 13 13 14 14 13 14 15 14 12 13 16 16 16 12 14 17 17 17 19 19 18 19
34 36 36 42 40 38 37 38 39 37 35 32 30 27 25 25 21 18 20 19 17 15 14 18 16 16 15 11 11 13 14 15 15 14 15 15 15 15 16 16 14 11 17 14 12 12 14 15 16 16 17 18 18 18
28 34 33 39 38 37 37 37 38 35 33 31 28 26 23 22 20 21 20 18 17 14 14 14 17 15 12 13 14 14 14 15 15 15 15 15 15 16 16 16 14 18 20 12 9 12 15 14 16 15 16 17 18 19
30 30 34 36 36 35 35 37 37 33 31 28 25 23 20 16 14 16 15 13 13 12 14 16 16 15 14 13 15 15 15 15 15 15 15 16 17 15 17 16 17 18 10 8 8 15 13 13 15 15 15 16 18 18
31 31 33 34 35 34 35 35 35 33 28 27 24 20 18 20 21 17 14 11 10 14 16 17 15 18 14 13 12 13 13 16 16 15 16 14 15 15 15 16 19 9 8 8 11 13 12 13 13 14 14 15 16 16
36 32 32 34 35 33 34 34 34 34 29 26 23 23 22 22 15 14 15 18 19 20 17 16 14 15 12 12 14 13 14 13 16 15 13 15 17 18 22 19 14 10 7 7 10 12 12 12 12 12 14 14 14 14
29 31 32 34 34 34 34 33 34 32 29 26 25 23 20 17 17 18 20 20 20 21 20 17 15 10 13 13 12 13 13 13 16 14 14 16 16 16 17 14 10 7 7 10 12 11 11 11 11 13 15 14 14 14
32 31 29 31 32 34 34 33 34 30 28 27 19 19 18 18 18 21 23 21 22 22 18 15 13 10 11 11 13 14 15 15 16 15 15 17 13 11 12 12 12 11 10 11 12 12 13 13 14 15 14 13 14 14
33 32 31 31 32 34 34 33 29 25 23 21 20 21 23 22 25 26 27 24 22 17 16 13 10 11 11 12 12 13 14 15 14 14 16 16 7 8 9 11 12 12 11 11 12 13 13 15 16 16 15 14 14 14
31 30 29 30 32 36 42 27 28 26 23 24 25 27 27 26 27 23 24 20 18 15 12 10 10 13 12 12 12 14 14 13 15 17 17 9 6 7 9 11 11 10 10 10 11 12 13 15 16 16 15 14 14 14
29 33 38 31 33 36 28 25 28 20 20 22 21 26 26 24 22 21 18 18 16 10 11 9 10 11 12 12 13 12 13 16 16 17 13 4 5 6 9 10 9 8 8 9 10 12 13 14 14 15 15 14 14 15
26 27 31 29 28 29 30 24 21 18 20 21 20 23 22 21 20 19 18 15 15 12 10 10 12 13 14 11 13 15 14 17 15 10 7 4 6 8 9 9 7 7 8 9 10 11 11 12 13 14 14 14 14 15
25 26 31 31 21 26 23 23 21 18 20 22 22 19 19 18 18 19 17 14 11 14 12 13 13 14 8 15 14 13 15 13 8 6 6 7 7 7 8 7 6 7 8 9 9 10 11 12 12 13 12 13 14 15
24 22 25 29 22 24 24 20 20 20 23 21 21 20 17 16 16 14 15 13 13 15 14 13 11 13 12 12 13 11 10 6 7 7 8 8 8 8 7 6 6 7 8 8 9 9 10 10 11 11 12 13 14 14
22 21 23 28 26 24 23 22 19 20 21 21 17 15 15 16 12 13 12 13 14 15 14 14 14 13 12 12 10 7 3 5 5 7 9 8 8 7 7 5 6 6 6 7 7 8 9 10 10 11 12 13 13 14
19 24 24 24 16 22 20 21 18 20 22 20 18 17 16 16 15 13 13 14 17 16 17 16 15 13 12 12 10 5 4 4 5 7 9 9 8 7 5 4 5 6 6 6 7 8 9 9 10 11 12 12 13 13
21 25 28 26 14 16 18 22 17 18 17 17 17 17 16 16 16 15 16 17 18 19 19 17 14 12 12 12 9 6 6 5 7 11 8 8 7 5 4 4 4 3 4 5 6 7 7 7 9 10 11 13 13 14
26 25 27 25 13 14 16 19 18 15 16 17 16 14 16 19 19 19 19 21 22 21 19 17 15 15 14 13 12 11 9 9 10 13 10 8 7 4 3 1 2 2 2 3 5 6 6 8 10 10 12 12 13 14
22 26 24 22 18 14 16 16 19 18 19 18 16 18 19 19 19 18 21 22 23 20 18 15 14 15 15 15 15 15 11 11 13 12 9 9 7 4 2 1 1 2 2 3 4 4 6 8 8 9 10 11 12 13
20 22 24 23 20 20 18 18 17 16 17 20 18 18 19 20 19 22 25 25 23 18 18 16 16 17 18 17 18 16 12 11 11 10 7 5 4 4 3 2 1 1 1 4 3 5 6 6 7 8 9 11 11 13
22 24 22 22 20 23 24 22 18 17 20 20 18 19 18 16 20 22 24 23 20 19 19 18 19 19 19 18 16 13 10 7 7 7 6 4 4 4 4 3 1 2 4 3 3 5 4 5 6 8 9 10 11 13
21 24 25 25 21 22 22 25 25 22 19 21 21 16 16 18 20 23 22 21 21 19 17 17 16 15 15 12 10 9 9 6 4 4 3 3 4 4 4 5 5 6 2 4 4 3 5 5 7 8 8 9 11 12
23 23 26 24 19 16 15 15 15 18 20 21 19 17 18 21 24 22 20 19 19 18 14 13 11 11 10 10 9 8 3 2 3 1 2 3 3 3 5 6 6 3 5 3 1 5 5 6 6 6 7 9 10 11
22 24 30 28 23 19 18 16 17 18 17 15 13 19 19 20 22 20 19 19 17 13 11 9 8 6 5 6 3 2 3 2 5 4 3 1 2 1 2 6 8 5 3 0 3 5 6 6 6 6 7 8 9 10
20 20 21 27 26 26 25 23 23 21 20 18 21 25 25 21 20 20 20 19 15 10 6 4 4 4 3 3 3 3 5 6 7 9 9 6 4 4 9 3 2 3 1 5 6 7 6 5 5 6 7 8 9 10
21 20 20 23 26 27 25 22 21 20 20 19 19 20 22 22 22 22 21 16 9 10 7 5 3 2 4 6 6 5 5 5 6 7 9 8 3 2 4 3 2 3 4 5 5 4 5 5 5 6 6 7 8 9
20 18 20 21 23 22 20 21 20 19 20 22 21 23 24 23 24 23 20 13 10 7 4 2 4 5 7 8 8 8 5 6 2 2 4 4 2 4 4 3 3 5 5 5 5 5 6 5 4 5 5 6 7 8
22 23 19 21 22 20 20 21 21 21 21 22 24 23 24 25 28 25 19 10 7 5 6 4 5 7 8 9 7 6 2 4 3 8 4 3 4 3 2 2 4 4 5 5 5 6 6 6 5 5 5 5 6 6
22 21 21 21 22 24 23 21 22 24 26 27 28 28 28 28 31 26 18 16 14 8 6 7 8 7 6 6 5 4 4 6 7 4 3 4 5 4 3 3 4 5 6 6 6 6 6 5 5 4 4 5 5 6
Wind_Direction
217 217 216 213 206 208 210 214 216 214 216 218 217 219 219 221 222 230 242 250 249 248 262 271 261 251 254 257 255 268 283 287 290 287 299 314 320 329 335 346 352 348 343 343 345 344 342 12 7 2 15 23 18 12
214 219 207 210 206 206 209 212 213 212 213 214 215 216 217 217 219 229 237 247 253 251 250 268 285 289 282 268 259 268 280 282 289 290 302 311 321 334 340 339 345 347 356 356 354 1 14 11 17 22 25 15 10 10
213 210 210 207 203 204 207 210 210 209 210 210 211 212 213 212 216 228 233 242 244 242 254 260 264 286 296 294 276 269 281 288 297 303 314 323 325 333 336 340 358 351 354 3 8 11 10 15 18 18 12 12 17 22
208 203 206 196 198 201 205 206 205 206 205 207 206 207 207 208 214 229 232 242 246 246 252 255 271 273 283 296 307 294 292 298 306 309 310 317 320 334 331 342 348 349 347 0 355 8 12 11 12 13 15 20 24 30
201 200 202 194 196 199 202 203 202 201 202 203 202 203 204 206 216 223 235 248 250 249 252 253 269 276 277 283 289 294 292 292 298 298 302 304 316 323 322 329 331 345 346 343 344 5 3 5 13 23 23 25 31 35
198 199 200 195 196 198 199 199 198 197 198 199 200 201 203 206 215 222 234 246 251 249 265 251 269 273 276 282 289 286 284 289 293 297 297 303 310 314 318 317 326 346 347 0 360 9 17 21 22 22 26 28 34 37
195 197 193 190 194 196 197 195 194 194 195 194 197 198 201 207 217 224 235 235 243 251 258 262 259 271 276 278 279 285 291 289 292 295 298 302 305 312 313 313 331 325 340 2 34 33 15 19 14 25 27 31 35 34
197 197 191 191 192 193 193 191 191 191 185 188 189 193 195 191 206 228 239 242 243 248 261 259 264 260 270 273 275 286 285 289 294 296 300 300 304 311 312 323 329 333 6 19 17 357 14 29 29 26 28 34 28 29
196 191 189 189 188 189 189 187 188 189 182 180 179 184 198 213 221 225 234 246 256 254 256 260 252 256 266 274 284 289 293 284 297 292 297 307 302 305 317 327 331 8 8 24 15 22 29 27 27 23 24 22 23 28
193 188 186 187 187 187 185 184 184 183 177 178 188 207 213 218 205 224 244 242 248 255 261 260 260 260 256 270 280 286 290 289 290 295 306 302 302 306 306 313 333 353 30 45 22 11 17 19 21 22 14 19 28 32
185 184 184 185 186 186 183 181 179 176 180 198 206 213 201 207 221 236 236 239 246 249 251 251 257 252 263 264 273 293 293 295 289 297 301 305 308 319 333 337 337 359 23 4 8 19 25 27 29 22 20 28 37 34
183 182 182 182 182 182 180 179 174 188 200 200 196 190 204 219 231 233 233 240 245 246 247 236 243 255 265 276 283 287 288 292 292 300 303 304 314 331 345 354 355 357 4 5 10 20 24 27 29 26 32 39 28 33
181 180 181 182 181 180 178 176 189 184 167 182 197 211 216 228 227 228 227 235 243 243 237 227 228 256 269 285 288 288 289 291 302 300 305 311 330 338 349 353 353 356 4 12 17 24 30 27 23 28 33 38 33 43
177 177 178 174 177 180 179 176 167 182 194 205 211 210 222 226 230 236 231 233 244 241 209 201 234 261 266 277 291 286 292 301 295 297 302 318 328 347 350 353 1 4 11 21 22 25 25 24 24 30 41 41 43 53
173 176 175 174 178 180 182 184 189 196 206 211 217 219 224 230 231 233 233 231 235 208 195 210 254 269 267 282 287 296 295 293 299 301 315 339 3 4 355 354 3 14 13 12 19 21 22 28 35 37 46 44 52 62
167 173 187 181 178 182 187 185 194 217 221 221 227 222 225 222 225 226 230 225 224 202 208 244 259 267 271 286 285 285 291 294 307 319 353 26 6 358 356 1 16 14 13 17 19 26 33 37 39 51 48 49 57 64
181 188 183 180 179 182 188 199 210 218 221 223 223 227 224 223 225 231 227 224 213 196 216 255 259 265 286 280 282 292 295 307 326 3 9 357 358 2 2 19 28 22 18 17 29 37 38 42 51 55 49 54 60 64
184 171 173 177 177 184 196 206 214 225 221 222 220 222 226 230 230 228 230 212 212 212 247 258 273 271 281 285 289 294 307 335 343 349 351 355 355 357 9 15 17 11 16 33 41 43 46 52 58 51 60 64 62 57
171 164 166 176 187 191 201 212 222 220 220 219 221 228 228 228 239 233 223 227 223 247 255 264 275 273 284 293 302 311 337 329 342 340 342 349 356 5 10 21 23 25 40 48 48 52 53 63 60 65 69 70 63 67
159 175 177 173 198 198 208 209 226 222 217 222 225 226 229 229 234 237 235 239 236 248 257 266 275 282 281 291 302 318 330 341 354 342 337 338 346 351 2 23 31 36 51 50 52 57 63 57 63 72 69 67 75 76
166 178 179 188 198 213 216 211 221 219 218 223 224 230 231 235 236 239 243 248 248 254 260 269 274 281 290 297 306 312 316 318 314 319 321 327 337 346 352 4 11 51 48 56 67 70 70 60 70 70 59 60 60 53
182 182 187 198 221 218 215 219 215 220 224 219 225 238 235 238 243 249 256 255 258 261 267 270 271 275 283 291 296 302 307 307 308 313 314 317 318 318 315 359 98 81 70 68 78 77 60 62 70 64 61 52 55 52
184 190 197 206 213 221 212 222 220 228 225 225 235 242 246 248 252 260 258 261 264 268 270 272 274 280 284 291 295 299 301 301 302 306 305 306 307 305 290 242 95 123 98 88 87 73 74 75 58 51 45 53 54 52
196 202 203 211 220 220 222 223 228 231 234 233 240 248 250 253 258 260 262 264 266 269 268 270 276 281 285 288 290 294 295 298 305 307 305 301 289 279 265 270 259 274 99 100 94 84 75 64 51 46 46 52 55 53
203 208 214 215 225 222 223 223 230 237 234 238 246 255 258 260 259 262 265 268 269 271 274 278 280 281 282 285 289 290 292 287 294 295 294 286 273 272 274 272 255 125 127 132 99 89 53 56 54 58 60 55 58 64
211 214 213 216 223 228 229 230 236 237 238 245 252 258 259 262 266 268 272 276 279 282 281 279 277 279 280 281 283 284 283 286 288 288 286 195 192 200 178 163 182 241 190 126 108 75 83 76 73 69 54 58 66 62
215 216 215 220 226 231 237 240 238 240 243 250 248 251 259 266 270 276 283 287 288 289 294 290 282 275 277 280 287 291 290 268 275 271 129 138 157 181 155 154 157 153 253 267 84 104 102 95 75 57 55 56 54 53
222 223 215 220 228 234 236 239 242 244 252 259 255 257 266 272 271 278 288 291 294 308 308 299 289 288 288 279 277 251 253 126 103 100 93 3 308 265 262 262 255 260 281 284 110 106 98 88 67 62 57 51 48 52
229 230 226 225 229 236 240 245 250 260 264 260 257 256 263 274 281 284 289 291 300 306 309 302 294 294 285 253 226 191 141 142 145 133 130 132 143 253 248 256 285 299 70 108 107 107 92 62 62 49 42 44 49 55
233 234 234 231 230 233 240 249 255 261 265 266 271 273 273 275 276 276 278 291 305 290 290 286 270 189 165 168 164 168 230 213 149 133 135 140 168 213 128 117 104 100 95 99 95 77 62 59 50 37 41 43 48 50
238 241 238 238 238 246 252 254 260 266 268 266 272 269 271 273 270 274 281 291 288 281 273 258 244 207 171 167 162 162 199 254 189 186 258 246 176 140 132 115 104 110 105 100 97 92 93 81 56 46 46 46 46 45
239 239 245 247 249 253 254 256 263 269 275 277 273 273 273 271 266 273 277 279 270 250 252 235 215 206 221 227 227 242 185 140 196 245 240 183 156 156 148 112 108 106 108 102 96 97 99 95 78 72 62 49 38 37
249 252 254 257 257 256 261 270 273 273 273 270 270 270 267 266 261 268 274 268 260 241 223 227 232 213 197 196 199 179 199 238 243 231 186 148 143 139 126 120 113 113 116 112 111 109 110 96 80 73 57 45 39 41